Location: Newark
(45.5167°N, 11.1667°E)
Time: 20:39:44
(UTC+00:00)

Explorer 7 - Pass Details

Date: 19 December 2019
Orbit: 485 x 679 km, 50.3° (Epoch: 25 January)

Event Time Altitude Azimuth Distance (km) Brightness Sun altitude
Rises 18:55:58 0° 288° (WNW) 3,036 11.6 -34.3°
Reaches altitude 10° 18:59:03 10° 268° (W) 2,113 10.6 -34.9°
Enters shadow 19:02:04 17° 230° (SW) 1,676 9.7 -35.4°
Maximum altitude 19:02:10 17° 229° (SW) 1,675 - -35.4°
Drops below altitude 10° 19:05:15 10° 189° (S) 2,073 - -36.0°
Sets 19:08:15 0° 169° (S) 2,953 - -36.5°
